FW1986 Weather Reports


time (UTC)temp
F
wind
direction
speed
knots
gust
knots
rain 1hr
in
rain 24hr
in
rain mn
in
humidity
%
barometer
mb
20260507132901 56 0 3.5 5.2 0.00 0.00 0.00 73 1016.4
20260507132404 56 0 3.5 5.2 0.00 0.00 0.00 72 1016.4
20260507131902 56 0 3.5 5.2 0.00 0.00 0.00 73 1016.4
20260507130402 56 0 3.5 6.1 0.00 0.00 0.00 74 1016.4
20260507125902 56 0 3.5 6.1 0.00 0.00 0.00 73 1016.5
20260507125402 56 0 4.3 5.2 0.00 0.00 0.00 73 1016.4
20260507124903 56 0 3.5 6.1 0.00 0.00 0.00 73 1016.5
20260507123902 56 0 3.5 8.7 0.00 0.00 0.00 72 1016.5
20260507123403 56 0 3.5 8.7 0.00 0.00 0.00 71 1016.4
20260507122902 57 0 5.2 8.7 0.00 0.00 0.00 69 1016.3
20260507122402 57 0 3.5 5.2 0.00 0.00 0.00 67 1016.3
20260507121902 57 0 4.3 5.2 0.00 0.00 0.00 66 1016.3
20260507121402 57 0 3.5 5.2 0.00 0.00 0.00 66 1016.3
20260507120902 57 0 3.5 5.2 0.00 0.00 0.00 66 1016.3
20260507120402 57 0 3.5 4.3 0.00 0.00 0.00 67 1016.3
20260507115903 58 0 3.5 4.3 0.00 0.00 0.00 67 1016.3
20260507115402 59 0 3.5 3.5 0.00 0.00 0.00 68 1016.3
20260507114402 59 0 1.7 6.1 0.00 0.00 0.00 70 1016.2
20260507113902 59 0 1.7 6.1 0.00 0.00 0.00 69 1016.1
20260507112903 59 0 0.9 3.5 0.00 0.00 0.00 67 1016.2
20260507112403 58 0 1.7 4.3 0.00 0.00 0.00 66 1016.3
20260507111904 58 0 1.7 4.3 0.00 0.00 0.00 70 1016.2
20260507110905 59 0 1.7 3.5 0.00 0.00 0.00 65 1016.4
20260507110402 59 0 1.7 5.2 0.00 0.00 0.00 63 1016.4
20260507105902 60 0 1.7 5.2 0.00 0.00 0.00 65 1016.4
20260507105402 60 0 2.6 5.2 0.00 0.00 0.00 65 1016.4
20260507104903 60 0 2.6 5.2 0.00 0.00 0.00 67 1016.5
20260507104402 60 0 3.5 4.3 0.00 0.00 0.00 64 1016.5
20260507103903 59 0 1.7 6.1 0.00 0.00 0.00 64 1016.5
20260507103403 59 0 1.7 6.1 0.00 0.00 0.00 66 1016.5
20260507102902 59 0 2.6 6.1 0.00 0.00 0.00 64 1016.5
20260507102404 60 0 3.5 6.1 0.00 0.00 0.00 64 1016.5
20260507101904 62 0 2.6 6.1 0.00 0.00 0.00 62 1016.5
20260507101402 63 0 1.7 4.3 0.00 0.00 0.00 69 1016.5
20260507100903 61 0 2.6 6.1 0.00 0.00 0.00 68 1016.4
20260507100404 60 0 1.7 6.1 0.00 0.00 0.00 72 1016.5
20260507095902 59 0 2.6 6.1 0.00 0.00 0.00 69 1016.5
20260507095402 59 0 5.2 6.1 0.00 0.00 0.00 68 1016.5
20260507094403 58 0 3.5 6.1 0.00 0.00 0.00 72 1016.3
20260507093903 58 0 4.3 6.1 0.00 0.00 0.00 74 1016.4
20260507093405 58 0 2.6 6.1 0.00 0.00 0.00 73 1016.4
20260507092902 58 0 3.5 6.1 0.00 0.00 0.00 74 1016.3
20260507092404 58 0 3.5 5.2 0.00 0.00 0.00 75 1016.3
20260507091902 57 0 3.5 5.2 0.00 0.00 0.00 77 1016.2
20260507091402 57 0 2.6 4.3 0.00 0.00 0.00 77 1016.2
20260507090903 56 0 2.6 4.3 0.00 0.00 0.00 77 1016.2
20260507090405 56 0 1.7 4.3 0.00 0.00 0.00 78 1016.1
20260507085903 56 0 2.6 5.2 0.00 0.00 0.00 79 1016.2
20260507085402 55 0 3.5 5.2 0.00 0.00 0.00 80 1016.1
20260507084902 55 0 3.5 5.2 0.00 0.00 0.00 80 1016.1
20260507084402 55 0 3.5 5.2 0.00 0.00 0.00 81 1016.1
20260507083903 55 0 3.5 5.2 0.00 0.00 0.00 82 1016.0
20260507083404 54 0 3.5 5.2 0.00 0.00 0.00 83 1016.1
20260507082402 53 0 3.5 6.1 0.00 0.00 0.00 84 1016.1
20260507081903 53 0 4.3 6.1 0.00 0.00 0.00 85 1016.0
20260507081402 53 0 2.6 5.2 0.00 0.00 0.00 86 1016.0
20260507080402 52 0 2.6 6.1 0.00 0.00 0.00 86 1016.0
20260507075901 52 0 4.3 6.1 0.00 0.00 0.00 86 1015.9
20260507075401 52 0 4.3 8.7 0.00 0.00 0.00 87 1015.9
20260507074902 51 0 4.3 8.7 0.00 0.00 0.00 87 1015.9
20260507074403 51 0 4.3 6.1 0.00 0.00 0.00 88 1015.9
20260507073903 51 0 3.5 6.1 0.00 0.00 0.00 88 1015.9
20260507073403 51 0 4.3 6.1 0.00 0.00 0.00 89 1015.7
20260507072901 51 0 4.3 6.1 0.00 0.00 0.00 89 1015.8
20260507072401 50 0 3.5 8.7 0.00 0.00 0.00 90 1015.8
20260507071905 50 0 3.5 8.7 0.00 0.00 0.00 90 1015.6
20260507071400 50 0 4.3 7.8 0.00 0.00 0.00 91 1015.6
20260507070901 50 0 4.3 6.1 0.00 0.00 0.00 91 1015.6
20260507070400 50 0 2.6 6.1 0.00 0.00 0.00 92 1015.6
20260507065905 50 0 4.3 6.1 0.00 0.00 0.00 92 1015.6
20260507065400 49 0 4.3 5.2 0.00 0.00 0.00 93 1015.6
20260507064902 49 0 3.5 5.2 0.00 0.00 0.00 93 1015.6
20260507064400 49 0 3.5 5.2 0.00 0.00 0.00 94 1015.6
20260507063859 49 0 3.5 5.2 0.00 0.00 0.00 94 1015.5
20260507063401 49 0 2.6 5.2 0.00 0.00 0.00 94 1015.6
20260507062900 49 0 1.7 4.3 0.00 0.00 0.00 94 1015.5
20260507061859 48 0 1.7 3.5 0.00 0.00 0.00 94 1015.5
20260507061359 48 0 2.6 4.3 0.00 0.00 0.00 94 1015.4
20260507060900 48 0 2.6 4.3 0.00 0.00 0.00 95 1015.4
20260507060359 48 0 1.7 3.5 0.00 0.00 0.00 95 1015.3
20260507055859 48 13 2.6 3.5 0.00 0.00 0.00 95 1015.3
20260507054858 48 0 1.7 3.5 0.00 0.00 0.00 95 1015.3
20260507054400 48 0 1.7 3.5 0.00 0.00 0.00 95 1015.1
20260507053858 48 0 0.9 3.5 0.00 0.00 0.00 95 1015.1
20260507053401 48 0 1.7 3.5 0.00 0.00 0.00 95 1015.1
20260507052858 47 0 1.7 2.6 0.00 0.00 0.00 95 1015.1
20260507052359 47 0 0.9 2.6 0.00 0.00 0.00 95 1014.9
20260507051858 47 0 0.9 1.7 0.00 0.00 0.00 95 1015.0
20260507051415 47 0 0.0 2.6 0.00 0.00 0.00 95 1014.9
20260507050858 47 0 0.9 2.6 0.00 0.00 0.00 95 1014.9
20260507050357 47 0 0.9 1.7 0.00 0.00 0.00 95 1014.8
20260507045857 47 0 0.9 1.7 0.00 0.00 0.00 95 1014.7
20260507045357 47 0 1.7 2.6 0.00 0.00 0.00 95 1014.8
20260507044857 47 0 0.9 2.6 0.00 0.00 0.00 95 1014.7
20260507043357 47 0 2.6 5.2 0.00 0.00 0.00 95 1014.5
20260507042857 47 0 1.7 5.2 0.00 0.00 0.00 95 1014.5
20260507041857 46 0 1.7 1.7 0.00 0.00 0.00 95 1014.5
20260507041357 46 0 0.0 0.0 0.00 0.00 0.00 95 1014.4
20260507040856 46 0 0.0 0.0 0.00 0.00 0.00 94 1014.3
20260507040356 46 0 0.0 0.0 0.00 0.00 0.00 94 1014.3
20260507035856 46 0 0.0 0.0 0.00 0.00 0.00 95 1014.2
20260507035356 46 0 0.0 0.0 0.00 0.00 0.00 95 1014.2
20260507034856 45 0 0.0 0.0 0.00 0.00 0.00 94 1014.1
20260507034358 45 0 0.0 0.0 0.00 0.00 0.00 94 1014.0
20260507033357 45 0 0.0 0.0 0.00 0.00 0.00 94 1014.0
20260507032856 45 0 0.0 2.6 0.00 0.00 0.00 94 1014.0
20260507032356 45 0 0.9 2.6 0.00 0.00 0.00 94 1014.0
20260507031355 45 0 1.7 1.7 0.00 0.00 0.00 94 1014.0
20260507030857 45 0 0.9 1.7 0.00 0.00 0.00 94 1014.0
20260507030355 45 0 0.0 0.0 0.00 0.00 0.00 94 1014.0
20260507025855 45 0 0.0 0.9 0.00 0.00 0.00 94 1013.9
20260507025356 44 0 0.0 0.9 0.00 0.00 0.00 94 1014.0
20260507024854 44 0 0.0 0.9 0.00 0.00 0.00 94 1013.9
20260507024355 44 0 0.9 0.9 0.00 0.00 0.00 94 1013.9
20260507023854 44 0 0.9 1.7 0.00 0.00 0.00 94 1013.9
20260507023354 43 0 0.9 1.7 0.00 0.00 0.00 94 1013.9
20260507022854 43 0 0.9 1.7 0.00 0.00 0.00 93 1013.8
20260507022355 43 0 0.9 1.7 0.00 0.00 0.00 94 1013.9
20260507021354 43 0 0.9 1.7 0.00 0.00 0.00 94 1013.9
20260507020854 43 0 1.7 1.7 0.00 0.00 0.00 93 1013.8
20260507020353 43 0 0.9 1.7 0.00 0.00 0.00 93 1013.8
20260507015853 43 0 1.7 1.7 0.00 0.00 0.00 93 1013.8
20260507015354 42 0 0.9 1.7 0.00 0.00 0.00 93 1013.7
20260507014853 43 0 1.7 1.7 0.00 0.00 0.00 93 1013.7
20260507014353 43 0 1.7 1.7 0.00 0.00 0.00 93 1013.7
20260507013853 43 0 1.7 1.7 0.00 0.00 0.00 93 1013.7
20260507012852 43 0 1.7 1.7 0.00 0.00 0.00 93 1013.7
20260507012354 43 0 0.9 1.7 0.00 0.00 0.00 93 1013.7
20260507011352 43 0 0.9 1.7 0.00 0.00 0.00 93 1013.6
20260507010853 44 0 0.9 1.7 0.00 0.00 0.00 92 1013.6
20260507010352 44 0 0.9 1.7 0.00 0.00 0.00 92 1013.6
20260507005853 44 0 0.9 1.7 0.00 0.00 0.00 92 1013.6
20260507005352 44 0 0.0 1.7 0.00 0.00 0.00 92 1013.6
20260507004852 44 0 0.9 1.7 0.00 0.00 0.00 92 1013.6
20260507004353 44 0 0.9 1.7 0.00 0.00 0.00 92 1013.6
20260507003853 44 0 0.9 1.7 0.00 0.00 0.00 92 1013.6
20260507003352 44 0 0.9 1.7 0.00 0.00 0.00 91 1013.6
20260507002851 44 0 0.9 1.7 0.00 0.00 0.00 91 1013.7
20260507002351 44 0 0.9 1.7 0.00 0.00 0.00 91 1013.6
20260507001851 44 0 0.9 1.7 0.00 0.00 0.00 91 1013.6
20260507000853 45 0 0.9 1.7 0.00 0.00 0.00 91 1013.6
20260507000351 45 0 1.7 1.7 0.00 0.00 0.00 90 1013.6
20260506235853 45 0 1.7 2.6 0.00 0.00 0.00 90 1013.6
20260506235353 45 0 1.7 2.6 0.00 0.00 0.00 90 1013.7
20260506234350 46 0 0.9 1.7 0.00 0.00 0.00 89 1013.6
20260506233850 47 0 1.7 1.7 0.00 0.00 0.00 89 1013.5
20260506233351 47 0 0.0 0.9 0.00 0.00 0.00 89 1013.4
20260506232853 48 0 0.0 0.0 0.00 0.00 0.00 89 1013.4
20260506232350 48 0 0.0 3.5 0.00 0.00 0.00 89 1013.4
20260506231848 49 0 0.9 3.5 0.00 0.00 0.00 89 1013.3
20260506230846 49 0 2.6 3.5 0.00 0.00 0.00 89 1013.4
20260506230344 49 0 2.6 3.5 0.00 0.00 0.00 89 1013.3
20260506225342 49 0 1.7 4.3 0.00 0.00 0.00 89 1013.2
20260506224842 49 0 1.7 4.3 0.00 0.00 0.00 89 1013.2
20260506223842 50 0 1.7 4.3 0.00 0.00 0.00 89 1013.3
20260506223343 50 0 2.6 4.3 0.00 0.00 0.00 88 1013.2
20260506222842 50 0 2.6 6.1 0.00 0.00 0.00 88 1013.1
20260506222343 50 0 3.5 6.1 0.00 0.00 0.00 88 1013.1
20260506221843 50 0 1.7 4.3 0.00 0.00 0.00 88 1013.1
20260506221342 50 0 2.6 4.3 0.00 0.00 0.00 88 1013.2
20260506220843 50 0 2.6 4.3 0.00 0.00 0.00 88 1013.2
20260506215842 50 0 1.7 4.3 0.00 0.00 0.00 88 1013.2
20260506215342 50 0 2.6 5.2 0.00 0.00 0.00 88 1013.2
20260506214842 50 0 3.5 5.2 0.00 0.00 0.00 88 1013.1
20260506214345 50 0 2.6 6.1 0.00 0.00 0.00 88 1013.1
20260506213844 50 0 2.6 6.1 0.00 0.00 0.00 88 1013.1
20260506213342 50 0 1.7 5.2 0.00 0.00 0.00 87 1013.1
20260506212843 51 0 3.5 5.2 0.00 0.00 0.00 87 1012.9
20260506212342 51 0 2.6 6.1 0.00 0.00 0.00 87 1013.0
20260506211842 51 0 2.6 6.1 0.00 0.00 0.00 87 1013.0
20260506211342 51 0 2.6 5.2 0.00 0.00 0.00 87 1012.9
20260506210842 51 0 3.5 8.7 0.00 0.00 0.00 87 1012.9
20260506210341 51 0 3.5 8.7 0.00 0.00 0.00 87 1012.9
20260506205839 51 0 3.5 7.8 0.00 0.00 0.00 87 1012.9
20260506205340 51 0 3.5 7.8 0.00 0.00 0.00 87 1012.8
20260506204839 51 0 3.5 6.1 0.00 0.00 0.00 87 1012.9
20260506204341 51 0 3.5 7.8 0.00 0.00 0.00 87 1012.9
20260506203839 51 0 4.3 7.8 0.00 0.00 0.00 87 1012.7
20260506203337 51 0 3.5 6.1 0.00 0.00 0.00 87 1012.7
20260506202837 51 0 3.5 6.1 0.00 0.00 0.00 87 1012.7
20260506201835 51 0 4.3 9.6 0.00 0.00 0.00 86 1012.7
20260506201331 51 0 3.5 9.6 0.00 0.00 0.00 86 1012.6
20260506200833 51 0 3.5 7.8 0.00 0.00 0.00 86 1012.6
20260506200331 51 0 4.3 8.7 0.00 0.00 0.00 85 1012.5
20260506195831 51 0 4.3 8.7 0.00 0.00 0.00 85 1012.5
20260506195335 51 0 4.3 9.6 0.00 0.00 0.00 85 1012.4
20260506194831 51 0 5.2 9.6 0.00 0.00 0.00 85 1012.5
20260506194331 51 0 3.5 9.6 0.00 0.00 0.00 85 1012.5
20260506193833 52 0 6.1 9.6 0.00 0.00 0.00 85 1012.4
20260506193331 52 0 3.5 7.8 0.00 0.00 0.00 84 1012.3
20260506192831 52 0 4.3 9.6 0.00 0.00 0.00 84 1012.4
20260506191831 52 0 5.2 10.4 0.00 0.00 0.00 83 1012.2
20260506191332 52 0 5.2 10.4 0.00 0.00 0.00 83 1012.2
20260506190833 52 0 5.2 9.6 0.00 0.00 0.00 83 1012.1
20260506190333 52 0 3.5 10.4 0.00 0.00 0.00 82 1012.1
20260506185832 52 0 6.1 11.3 0.00 0.00 0.00 82 1012.0
20260506185331 53 0 7.8 11.3 0.00 0.00 0.00 82 1012.1
20260506184830 53 0 5.2 11.3 0.00 0.00 0.00 81 1012.0
20260506184331 53 0 5.2 11.3 0.00 0.00 0.00 81 1012.0
20260506183830 54 0 6.1 12.2 0.00 0.00 0.00 80 1012.0
20260506183332 54 0 6.1 13.9 0.00 0.00 0.00 79 1012.0
20260506182831 54 0 9.6 13.9 0.00 0.00 0.00 79 1012.0
20260506182331 55 0 6.1 13.0 0.00 0.00 0.00 79 1011.9
20260506181830 55 0 3.5 12.2 0.00 0.00 0.00 79 1011.8
20260506181330 55 0 8.7 12.2 0.00 0.00 0.00 78 1011.7
20260506180329 54 0 6.1 13.0 0.00 0.00 0.00 79 1011.6
20260506175827 54 0 7.0 13.0 0.00 0.00 0.00 78 1011.6
20260506175328 55 0 7.0 13.9 0.00 0.00 0.00 79 1011.5
20260506174827 55 0 8.7 13.9 0.00 0.00 0.00 78 1011.4
20260506174329 55 0 7.8 13.0 0.00 0.00 0.00 78 1011.4
20260506172323 55 0 8.7 13.0 0.00 0.00 0.00 77 1011.2
20260506171821 55 4 9.6 13.0 0.00 0.00 0.00 77 1011.2
20260506171322 55 0 8.7 13.0 0.00 0.00 0.00 77 1011.2
20260506170821 55 0 7.8 12.2 0.00 0.00 0.00 77 1011.2
20260506170324 55 0 7.0 13.0 0.00 0.00 0.00 77 1011.1
20260506165822 55 0 8.7 13.0 0.00 0.00 0.00 76 1011.0
20260506165321 56 0 7.8 13.0 0.00 0.00 0.00 74 1010.9
20260506164818 56 0 8.7 13.0 0.00 0.00 0.00 75 1011.0
20260506164319 56 0 8.7 13.9 0.00 0.00 0.00 74 1011.1
20260506163317 57 0 9.6 13.9 0.00 0.00 0.00 72 1011.0
20260506162819 56 0 8.7 14.8 0.00 0.00 0.00 74 1011.0
20260506161808 56 0 6.1 14.8 0.00 0.00 0.00 73 1010.9
20260506161309 56 0 8.7 14.8 0.00 0.00 0.00 75 1010.9
20260506160811 56 0 7.8 13.9 0.00 0.00 0.00 74 1010.9
20260506160310 56 0 8.7 14.8 0.00 0.00 0.00 74 1010.9
20260506155811 57 0 10.4 14.8 0.00 0.00 0.00 72 1010.8
20260506155320 57 0 8.7 13.9 0.00 0.00 0.00 71 1010.8
20260506154810 57 0 8.7 14.8 0.00 0.00 0.00 74 1010.8
20260506154310 57 0 9.6 14.8 0.00 0.00 0.00 73 1010.8
20260506153808 57 0 9.6 13.9 0.00 0.00 0.00 72 1010.8
20260506153308 57 0 8.7 14.8 0.00 0.00 0.00 73 1010.7
20260506152806 57 0 9.6 14.8 0.00 0.00 0.00 73 1010.8
20260506152317 57 0 7.8 13.0 0.00 0.00 0.00 73 1010.9
20260506151807 57 0 7.0 13.0 0.00 0.00 0.00 74 1010.7
20260506151307 57 0 6.1 14.8 0.00 0.00 0.00 73 1010.8
20260506150806 57 0 9.6 15.6 0.00 0.00 0.00 73 1010.9
20260506145803 57 0 8.7 16.5 0.00 0.00 0.00 75 1010.8
20260506145305 57 0 8.7 14.8 0.00 0.00 0.00 75 1010.8
20260506144302 56 0 11.3 16.5 0.00 0.00 0.00 75 1010.8
20260506143802 56 0 10.4 15.6 0.00 0.00 0.00 76 1010.7
20260506143302 56 0 9.6 18.2 0.00 0.00 0.00 75 1010.6
20260506142802 57 0 10.4 18.2 0.00 0.00 0.00 75 1010.6
20260506142305 56 0 11.3 15.6 0.00 0.00 0.00 75 1010.7
20260506141803 56 0 10.4 16.5 0.00 0.00 0.00 75 1010.7
20260506141302 57 0 8.7 16.5 0.00 0.00 0.00 75 1010.6
20260506140802 57 0 7.8 13.9 0.00 0.00 0.00 75 1010.6
20260506140302 57 0 7.8 13.9 0.00 0.00 0.00 75 1010.6
20260506135802 57 0 7.8 13.9 0.00 0.00 0.00 75 1010.6
20260506135306 57 0 7.8 13.9 0.00 0.00 0.00 75 1010.7
20260506134304 57 0 7.8 12.2 0.00 0.00 0.00 75 1010.7
20260506133804 57 0 8.7 13.0 0.00 0.00 0.00 75 1010.6
20260506133303 57 0 9.6 14.8 0.00 0.00 0.00 75 1010.7